This is the latest recevied weather packets stored in our database for station/object HK6RM-21. If no packets are shown the sender has not sent any weather packets the latest 10 day(s).
| Time | Temp. | Humidity | Pressure | Rain* | Wind** | Luminosity | Snow |
|---|---|---|---|---|---|---|---|
| 1777702974 | 26.11° C | 93% | 1012 hPa | 1.02 mm | - | - | - |
| 1777702253 | 26.67° C | 95% | 1011 hPa | 1.02 mm | - | - | - |
| 1777701531 | 26.67° C | 95% | 1011 hPa | 0 mm | - | - | - |
| 1777700811 | 26.67° C | 95% | 1011 hPa | 0 mm | - | - | - |
| 1777700090 | 26.67° C | 94% | 1011 hPa | 0 mm | - | - | - |
| 1777699368 | 26.67° C | 92% | 1013 hPa | 0 mm | - | - | - |
| 1777698647 | 26.67° C | 91% | 1013 hPa | 0 mm | - | - | - |
| 1777697926 | 26.67° C | 94% | 1012 hPa | 0.76 mm | - | - | - |
| 1777697205 | 26.67° C | 94% | 1012 hPa | 3.56 mm | - | - | - |
| 1777696485 | 26.67° C | 94% | 1012 hPa | 3.3 mm | - | - | - |
| 1777695764 | 27.22° C | 90% | 1013 hPa | 3.56 mm | - | - | - |
| 1777695043 | 27.22° C | 90% | 1013 hPa | 1.52 mm | - | - | - |
| 1777694321 | 27.22° C | 93% | 1012 hPa | 1.27 mm | - | - | - |
| 1777693600 | 27.22° C | 93% | 1012 hPa | 1.02 mm | - | - | - |
| 1777692879 | 27.22° C | 92% | 1012 hPa | 0 mm | - | - | - |
| 1777692158 | 27.78° C | 89% | 1012 hPa | 0 mm | - | - | - |
| 1777691436 | 28.33° C | 89% | 1012 hPa | 0.25 mm | - | - | - |
| 1777690716 | 27.78° C | 92% | 1011 hPa | 0 mm | - | - | - |
| 1777689992 | 27.78° C | 92% | 1011 hPa | 0 mm | - | - | - |
| 1777689270 | 28.33° C | 92% | 1011 hPa | 0 mm | - | - | - |
| 1777688550 | 28.33° C | 88% | 1010 hPa | 0 mm | - | - | - |
| 1777687830 | 28.89° C | 86% | 1010 hPa | 0 mm | - | - | - |
| 1777687103 | 28.89° C | 89% | 1009 hPa | 0 mm | - | - | - |
| 1777686381 | 28.89° C | 89% | 1009 hPa | 0 mm | - | - | - |
| 1777685660 | 28.89° C | 89% | 1009 hPa | 0 mm | - | - | - |
* Rain latest hour (hover to see other rain measurements)
** Current wind speed in m/s (hover to see current wind gust speed)